{"data":{"norad_id":63857,"intl_designator":"2025-093X","name":"STARLINK-33999","alt_names":[],"object_type":"PAYLOAD","status":"ACTIVE","operator":null,"country":"US","launch_date":"2025-05-07","launch_site_code":"AFETR","launch_vehicle":null,"mission":null,"orbit_class":"UNKNOWN","rcs_meters":null,"size_class":null,"mass_kg":null,"dimensions":null,"purposes":["comms"],"wikipedia_slug":null,"has_3d_model":false,"image_url":null,"decayed_at":null,"tle_current":{"epoch":"2026-09-20T09:50:58.322400Z","epoch_age_seconds":157644,"freshness":"FRESH","line1":"1 63857U 25093X   26263.41039725  .00012081  00000+0  44777-3 0  9991","line2":"2 63857  43.0021  58.0606 0000983 271.4393  88.6346 15.27582591 77751","mean_motion":15.27582591,"eccentricity":9.83e-5,"inclination_deg":43.0021,"raan_deg":58.0606,"arg_perigee_deg":271.4393,"mean_anomaly_deg":88.6346,"bstar":0.00044777,"rev_number":7775,"period_min":94.266588823674,"perigee_km":482.36688383392,"apogee_km":483.7157914951,"semimajor_km":6861.1783376645,"source":"CELESTRAK","updated_at":"2026-09-21T09:00:35.135303Z"}}}